Time,TemperatureF,DewpointF,PressureIn,WindDirection,WindDirectionDegrees,WindSpeedMPH,WindSpeedGustMPH,Humidity,HourlyPrecipIn,Conditions,Clouds,dailyrainin,SolarRadiationWatts/m^2,SoftwareType,DateUTC
2013-05-06 00:11:00,43.0,39.0,-100.00,NE,51,0.0,0.0,86,0.00,,,0.05,1.000000,,2013-05-06 07:11:00,
2013-05-06 00:22:00,43.0,39.0,-100.00,NE,51,0.0,0.0,86,0.00,,,0.05,1.000000,,2013-05-06 07:22:00,
2013-05-06 00:31:00,43.0,39.0,-100.00,NE,51,0.0,0.0,86,0.00,,,0.05,1.000000,,2013-05-06 07:31:00,
2013-05-06 00:42:00,43.0,39.0,-100.00,NE,51,0.0,0.0,86,0.00,,,0.05,1.000000,,2013-05-06 07:42:00,
2013-05-06 00:51:00,44.0,40.0,-100.00,ENE,58,0.0,4.0,86,0.00,,,0.05,1.000000,,2013-05-06 07:51:00,
2013-05-06 01:12:00,44.0,40.0,-100.00,ENE,58,0.0,4.0,86,0.00,,,0.05,1.000000,,2013-05-06 08:12:00,
2013-05-06 01:22:00,44.0,40.0,-100.00,ENE,58,0.0,4.0,86,0.00,,,0.05,1.000000,,2013-05-06 08:22:00,
2013-05-06 01:31:00,44.0,40.0,-100.00,ENE,58,0.0,4.0,86,0.00,,,0.05,1.000000,,2013-05-06 08:31:00,
2013-05-06 01:41:00,44.0,40.0,-100.00,ENE,58,0.0,4.0,86,0.00,,,0.05,1.000000,,2013-05-06 08:41:00,
2013-05-06 01:51:00,38.0,36.0,-100.00,SSE,155,2.0,5.0,93,0.24,,,0.29,1.000000,,2013-05-06 08:51:00,
2013-05-06 02:22:00,38.0,36.0,-100.00,SSE,155,2.0,5.0,93,0.24,,,0.29,1.000000,,2013-05-06 09:22:00,
2013-05-06 02:32:00,38.0,36.0,-100.00,SSE,155,2.0,5.0,93,0.24,,,0.29,1.000000,,2013-05-06 09:32:00,
2013-05-06 02:42:00,38.0,36.0,-100.00,SSE,155,2.0,5.0,93,0.24,,,0.29,1.000000,,2013-05-06 09:42:00,
2013-05-06 02:51:00,39.0,37.0,-100.00,ESE,122,1.0,5.0,91,0.02,,,0.31,1.000000,,2013-05-06 09:51:00,
2013-05-06 03:22:00,39.0,37.0,-100.00,ESE,122,1.0,5.0,91,0.02,,,0.31,1.000000,,2013-05-06 10:22:00,
2013-05-06 03:32:00,39.0,37.0,-100.00,ESE,122,1.0,5.0,91,0.02,,,0.31,1.000000,,2013-05-06 10:32:00,
2013-05-06 03:41:00,39.0,37.0,-100.00,ESE,122,1.0,5.0,91,0.02,,,0.31,1.000000,,2013-05-06 10:41:00,
2013-05-06 03:51:00,37.0,35.0,-100.00,SE,132,3.0,8.0,91,0.21,,,0.49,1.000000,,2013-05-06 10:51:00,
2013-05-06 04:12:00,37.0,35.0,-100.00,SE,132,3.0,8.0,91,0.21,,,0.49,1.000000,,2013-05-06 11:12:00,
2013-05-06 04:22:00,37.0,35.0,-100.00,SE,132,3.0,8.0,91,0.21,,,0.49,1.000000,,2013-05-06 11:22:00,
2013-05-06 04:31:00,37.0,35.0,-100.00,SE,132,3.0,8.0,91,0.21,,,0.49,1.000000,,2013-05-06 11:31:00,
2013-05-06 04:42:00,37.0,35.0,-100.00,SE,132,3.0,8.0,91,0.21,,,0.49,1.000000,,2013-05-06 11:42:00,
2013-05-06 04:51:00,35.0,33.0,-100.00,South,181,0.0,2.0,94,0.11,,,0.58,1.000000,,2013-05-06 11:51:00,
2013-05-06 05:21:00,35.0,33.0,-100.00,South,181,0.0,2.0,94,0.11,,,0.58,1.000000,,2013-05-06 12:21:00,
2013-05-06 05:32:00,35.0,33.0,-100.00,South,181,0.0,2.0,94,0.11,,,0.58,1.000000,,2013-05-06 12:32:00,
2013-05-06 05:41:00,35.0,33.0,-100.00,South,181,0.0,2.0,94,0.11,,,0.58,1.000000,,2013-05-06 12:41:00,
2013-05-06 05:51:00,35.0,33.0,-100.00,South,191,2.0,6.0,94,0.07,,,0.65,1.000000,,2013-05-06 12:51:00,
2013-05-06 06:11:00,35.0,33.0,-100.00,South,191,2.0,6.0,94,0.07,,,0.65,1.000000,,2013-05-06 13:11:00,
2013-05-06 06:21:00,35.0,33.0,-100.00,South,191,2.0,6.0,94,0.07,,,0.65,1.000000,,2013-05-06 13:21:00,
2013-05-06 06:31:00,35.0,33.0,-100.00,South,191,2.0,6.0,94,0.07,,,0.65,1.000000,,2013-05-06 13:31:00,
2013-05-06 06:42:00,35.0,33.0,-100.00,South,191,2.0,6.0,94,0.07,,,0.65,1.000000,,2013-05-06 13:42:00,
2013-05-06 06:51:00,33.0,31.0,-100.00,SSE,151,1.0,4.0,93,0.18,,,0.83,2.000000,,2013-05-06 13:51:00,
2013-05-06 07:11:00,33.0,31.0,-100.00,SSE,151,1.0,4.0,93,0.18,,,0.83,2.000000,,2013-05-06 14:11:00,
2013-05-06 07:21:00,33.0,31.0,-100.00,SSE,151,1.0,4.0,93,0.18,,,0.83,2.000000,,2013-05-06 14:21:00,
2013-05-06 07:32:00,33.0,31.0,-100.00,SSE,151,1.0,4.0,93,0.18,,,0.83,2.000000,,2013-05-06 14:32:00,
2013-05-06 07:42:00,33.0,31.0,-100.00,SSE,151,1.0,4.0,93,0.18,,,0.83,2.000000,,2013-05-06 14:42:00,
2013-05-06 07:51:00,33.0,31.0,-100.00,ENE,60,1.0,3.0,94,0.08,,,0.91,9.000000,,2013-05-06 14:51:00,
2013-05-06 08:21:00,33.0,31.0,-100.00,ENE,60,1.0,3.0,94,0.08,,,0.91,9.000000,,2013-05-06 15:21:00,
2013-05-06 08:33:00,33.0,31.0,-100.00,ENE,60,1.0,3.0,94,0.08,,,0.91,9.000000,,2013-05-06 15:33:00,
2013-05-06 08:42:00,33.0,31.0,-100.00,ENE,60,1.0,3.0,94,0.08,,,0.91,9.000000,,2013-05-06 15:42:00,
2013-05-06 08:51:00,34.0,32.0,-100.00,NNW,343,0.0,2.0,94,0.04,,,0.95,30.000000,,2013-05-06 15:51:00,
2013-05-06 09:13:00,34.0,32.0,-100.00,NNW,343,0.0,2.0,94,0.04,,,0.95,30.000000,,2013-05-06 16:13:00,
2013-05-06 09:23:00,34.0,32.0,-100.00,NNW,343,0.0,2.0,94,0.04,,,0.95,30.000000,,2013-05-06 16:23:00,
2013-05-06 09:32:00,34.0,32.0,-100.00,NNW,343,0.0,2.0,94,0.04,,,0.95,30.000000,,2013-05-06 16:32:00,
2013-05-06 09:41:00,34.0,32.0,-100.00,NNW,343,0.0,2.0,94,0.04,,,0.95,30.000000,,2013-05-06 16:41:00,
2013-05-06 09:51:00,35.0,33.0,-100.00,SSE,162,0.0,2.0,94,0.11,,,1.06,82.000000,,2013-05-06 16:51:00,
2013-05-06 10:12:00,35.0,33.0,-100.00,SSE,162,0.0,2.0,94,0.11,,,1.06,82.000000,,2013-05-06 17:12:00,
2013-05-06 10:23:00,35.0,33.0,-100.00,SSE,162,0.0,2.0,94,0.11,,,1.06,82.000000,,2013-05-06 17:23:00,
2013-05-06 10:31:00,35.0,33.0,-100.00,SSE,162,0.0,2.0,94,0.11,,,1.06,82.000000,,2013-05-06 17:31:00,
2013-05-06 10:42:00,35.0,33.0,-100.00,SSE,162,0.0,2.0,94,0.11,,,1.06,82.000000,,2013-05-06 17:42:00,
2013-05-06 10:51:00,39.0,36.0,-100.00,North,6,3.0,5.0,90,0.13,,,1.19,253.000000,,2013-05-06 17:51:00,
2013-05-06 11:12:00,39.0,36.0,-100.00,North,6,3.0,5.0,90,0.13,,,1.19,253.000000,,2013-05-06 18:12:00,
2013-05-06 11:21:00,39.0,36.0,-100.00,North,6,3.0,5.0,90,0.13,,,1.19,253.000000,,2013-05-06 18:21:00,
2013-05-06 11:31:00,39.0,36.0,-100.00,North,6,3.0,5.0,90,0.13,,,1.19,253.000000,,2013-05-06 18:31:00,
2013-05-06 11:43:00,39.0,36.0,-100.00,North,6,3.0,5.0,90,0.13,,,1.19,253.000000,,2013-05-06 18:43:00,
2013-05-06 11:51:00,42.0,38.0,-100.00,West,262,2.0,3.0,84,0.00,,,1.19,257.000000,,2013-05-06 18:51:00,
2013-05-06 12:11:00,42.0,38.0,-100.00,West,262,2.0,3.0,84,0.00,,,1.19,257.000000,,2013-05-06 19:11:00,
2013-05-06 12:22:00,42.0,38.0,-100.00,West,262,2.0,3.0,84,0.00,,,1.19,257.000000,,2013-05-06 19:22:00,
2013-05-06 12:32:00,42.0,38.0,-100.00,West,262,2.0,3.0,84,0.00,,,1.19,257.000000,,2013-05-06 19:32:00,
2013-05-06 12:41:00,42.0,38.0,-100.00,West,262,2.0,3.0,84,0.00,,,1.19,257.000000,,2013-05-06 19:41:00,
2013-05-06 12:51:00,42.0,38.0,-100.00,East,79,2.0,4.0,84,0.01,,,1.20,201.000000,,2013-05-06 19:51:00,
2013-05-06 13:21:00,42.0,38.0,-100.00,East,79,2.0,4.0,84,0.01,,,1.20,201.000000,,2013-05-06 20:21:00,
2013-05-06 13:32:00,42.0,38.0,-100.00,East,79,2.0,4.0,84,0.01,,,1.20,201.000000,,2013-05-06 20:32:00,
2013-05-06 13:41:00,42.0,38.0,-100.00,East,79,2.0,4.0,84,0.01,,,1.20,201.000000,,2013-05-06 20:41:00,
2013-05-06 13:51:00,42.0,39.0,-100.00,NW,324,2.0,5.0,89,0.01,,,1.21,138.000000,,2013-05-06 20:51:00,
2013-05-06 14:11:00,42.0,39.0,-100.00,NW,324,2.0,5.0,89,0.01,,,1.21,138.000000,,2013-05-06 21:11:00,
2013-05-06 14:21:00,42.0,39.0,-100.00,NW,324,2.0,5.0,89,0.01,,,1.21,138.000000,,2013-05-06 21:21:00,
2013-05-06 14:32:00,42.0,39.0,-100.00,NW,324,2.0,5.0,89,0.01,,,1.21,138.000000,,2013-05-06 21:32:00,
2013-05-06 14:42:00,42.0,39.0,-100.00,NW,324,2.0,5.0,89,0.01,,,1.21,138.000000,,2013-05-06 21:42:00,
2013-05-06 14:51:00,40.0,37.0,-100.00,NNW,338,2.0,6.0,90,0.06,,,1.27,99.000000,,2013-05-06 21:51:00,
2013-05-06 15:22:00,40.0,37.0,-100.00,NNW,338,2.0,6.0,90,0.06,,,1.27,99.000000,,2013-05-06 22:22:00,
2013-05-06 15:33:00,40.0,37.0,-100.00,NNW,338,2.0,6.0,90,0.06,,,1.27,99.000000,,2013-05-06 22:33:00,
2013-05-06 15:45:00,40.0,37.0,-100.00,NNW,338,2.0,6.0,90,0.06,,,1.27,99.000000,,2013-05-06 22:45:00,
2013-05-06 15:51:00,39.0,36.0,-100.00,SSE,164,2.0,5.0,89,0.06,,,1.33,85.000000,,2013-05-06 22:51:00,
2013-05-06 16:22:00,39.0,36.0,-100.00,SSE,164,2.0,5.0,89,0.06,,,1.33,85.000000,,2013-05-06 23:22:00,
2013-05-06 16:31:00,39.0,36.0,-100.00,SSE,164,2.0,5.0,89,0.06,,,1.33,85.000000,,2013-05-06 23:31:00,
2013-05-06 16:41:00,39.0,36.0,-100.00,SSE,164,2.0,5.0,89,0.06,,,1.33,85.000000,,2013-05-06 23:41:00,
2013-05-06 16:51:00,40.0,37.0,-100.00,SSE,156,5.0,11.0,88,0.01,,,1.34,205.000000,,2013-05-06 23:51:00,
2013-05-06 17:21:00,40.0,37.0,-100.00,SSE,156,5.0,11.0,88,0.01,,,1.34,205.000000,,2013-05-07 00:21:00,
2013-05-06 17:31:00,40.0,37.0,-100.00,SSE,156,5.0,11.0,88,0.01,,,1.34,205.000000,,2013-05-07 00:31:00,
2013-05-06 17:41:00,40.0,37.0,-100.00,SSE,156,5.0,11.0,88,0.01,,,1.34,205.000000,,2013-05-07 00:41:00,
2013-05-06 17:51:00,42.0,38.0,-100.00,SSE,160,3.0,9.0,85,0.00,,,1.34,231.000000,,2013-05-07 00:51:00,
2013-05-06 18:11:00,42.0,38.0,-100.00,SSE,160,3.0,9.0,85,0.00,,,1.34,231.000000,,2013-05-07 01:11:00,
2013-05-06 18:21:00,42.0,38.0,-100.00,SSE,160,3.0,9.0,85,0.00,,,1.34,231.000000,,2013-05-07 01:21:00,
2013-05-06 18:31:00,42.0,38.0,-100.00,SSE,160,3.0,9.0,85,0.00,,,1.34,231.000000,,2013-05-07 01:31:00,
2013-05-06 18:42:00,42.0,38.0,-100.00,SSE,160,3.0,9.0,85,0.00,,,1.34,231.000000,,2013-05-07 01:42:00,
2013-05-06 18:51:00,38.0,35.0,-100.00,SSE,156,4.0,8.0,89,0.05,,,1.39,71.000000,,2013-05-07 01:51:00,
2013-05-06 19:11:00,38.0,35.0,-100.00,SSE,156,4.0,8.0,89,0.05,,,1.39,71.000000,,2013-05-07 02:11:00,
2013-05-06 19:21:00,38.0,35.0,-100.00,SSE,156,4.0,8.0,89,0.05,,,1.39,71.000000,,2013-05-07 02:21:00,
2013-05-06 19:31:00,38.0,35.0,-100.00,SSE,156,4.0,8.0,89,0.05,,,1.39,71.000000,,2013-05-07 02:31:00,
2013-05-06 19:41:00,38.0,35.0,-100.00,SSE,156,4.0,8.0,89,0.05,,,1.39,71.000000,,2013-05-07 02:41:00,
2013-05-06 19:51:00,38.0,36.0,-100.00,West,265,1.0,8.0,92,0.00,,,1.39,7.000000,,2013-05-07 02:51:00,
2013-05-06 20:21:00,38.0,36.0,-100.00,West,265,1.0,8.0,92,0.00,,,1.39,7.000000,,2013-05-07 03:21:00,
2013-05-06 20:32:00,38.0,36.0,-100.00,West,265,1.0,8.0,92,0.00,,,1.39,7.000000,,2013-05-07 03:32:00,
2013-05-06 20:42:00,38.0,36.0,-100.00,West,265,1.0,8.0,92,0.00,,,1.39,7.000000,,2013-05-07 03:42:00,
2013-05-06 20:51:00,38.0,36.0,-100.00,SW,222,0.0,2.0,93,0.00,,,1.39,1.000000,,2013-05-07 03:51:00,
2013-05-06 21:23:00,38.0,36.0,-100.00,SW,222,0.0,2.0,93,0.00,,,1.39,1.000000,,2013-05-07 04:23:00,
2013-05-06 21:33:00,38.0,36.0,-100.00,SW,222,0.0,2.0,93,0.00,,,1.39,1.000000,,2013-05-07 04:33:00,
2013-05-06 21:42:00,38.0,36.0,-100.00,SW,222,0.0,2.0,93,0.00,,,1.39,1.000000,,2013-05-07 04:42:00,
2013-05-06 21:51:00,37.0,35.0,-100.00,SSE,155,0.0,3.0,94,0.00,,,1.39,1.000000,,2013-05-07 04:51:00,
2013-05-06 22:22:00,37.0,35.0,-100.00,SSE,155,0.0,3.0,94,0.00,,,1.39,1.000000,,2013-05-07 05:22:00,
2013-05-06 22:32:00,37.0,35.0,-100.00,SSE,155,0.0,3.0,94,0.00,,,1.39,1.000000,,2013-05-07 05:32:00,
2013-05-06 22:42:00,37.0,35.0,-100.00,SSE,155,0.0,3.0,94,0.00,,,1.39,1.000000,,2013-05-07 05:42:00,
2013-05-06 22:51:00,36.0,34.0,-100.00,West,279,0.0,2.0,94,0.00,,,1.39,1.000000,,2013-05-07 05:51:00,
2013-05-06 23:12:00,36.0,34.0,-100.00,West,279,0.0,2.0,94,0.00,,,1.39,1.000000,,2013-05-07 06:12:00,
2013-05-06 23:22:00,36.0,34.0,-100.00,West,279,0.0,2.0,94,0.00,,,1.39,1.000000,,2013-05-07 06:22:00,
2013-05-06 23:32:00,36.0,34.0,-100.00,West,279,0.0,2.0,94,0.00,,,1.39,1.000000,,2013-05-07 06:32:00,
2013-05-06 23:41:00,36.0,34.0,-100.00,West,279,0.0,2.0,94,0.00,,,1.39,1.000000,,2013-05-07 06:41:00,
2013-05-06 23:51:00,36.0,35.0,-100.00,ESE,105,0.0,2.0,95,0.00,,,1.39,1.000000,,2013-05-07 06:51:00,